User: anonymous
Location: Shades State Park
(39.9310°N, 87.0690°W)
Time: 06:42:20
(UTC-04:00)
Language:

H-2A R/B - Orbit

View from above orbital plane
View from above orbital plane
View from above satellite
View from above satellite

Ground track
Ground track

The orbit data is extracted from the following two-line orbital elements,

1 27601U 02056E   14209.84421267  .00000154  00000-0  72012-4 0  1447
2 27601 098.4807 291.5409 0073045 175.2328 293.6836 14.31389323606951
Epoch (UTC): 28 July 2014 20:15:39
Eccentricity: 0.0073045
inclination: 98.4807°
perigee height: 735 km
apogee height: 839 km
right ascension of ascending node: 291.5409°
argument of perigee: 175.2328°
revolutions per day: 14.31389323
mean anomaly at epoch: 293.6836°
orbit number at epoch: 60695

The dashed part of the orbit path shows where the satellite is in the earth's shadow,  

DLR